owner,sensor,date,latitude,longitude,vertical_datum,sea_water_temperature,qcFlag 
TABS,ioos:station:TABS:H:1,2007-09-11T03:00:00Z,27.8674,-96.5433,-2.0,0.0,11133222 
TABS,ioos:station:TABS:H:1,2007-09-11T03:30:00Z,27.8674,-96.5433,-2.0,0.0,11133222 
TABS,ioos:station:TABS:H:1,2007-09-11T04:00:00Z,27.8674,-96.5433,-2.0,0.0,11133222 
TABS,ioos:station:TABS:H:1,2007-09-11T04:30:00Z,27.8674,-96.5433,-2.0,0.0,11133222 
TABS,ioos:station:TABS:H:1,2007-09-11T05:00:00Z,27.8674,-96.5433,-2.0,0.0,11133222 
TABS,ioos:station:TABS:H:1,2007-09-11T07:00:00Z,27.8674,-96.5433,-2.0,0.0,11133222 
TABS,ioos:station:TABS:H:1,2007-09-11T07:30:00Z,27.8674,-96.5433,-2.0,0.0,11133222 
TABS,ioos:station:TABS:H:1,2007-09-11T08:00:00Z,27.8674,-96.5433,-2.0,0.0,11133222 
TABS,ioos:station:TABS:H:1,2007-09-11T08:30:00Z,27.8674,-96.5433,-2.0,0.0,11133222 
TABS,ioos:station:TABS:H:1,2007-09-11T10:00:00Z,27.8674,-96.5433,-2.0,0.0,11133222 
TABS,ioos:station:TABS:H:1,2007-09-11T10:30:00Z,27.8674,-96.5433,-2.0,0.0,11133222 
TABS,ioos:station:TABS:H:1,2007-09-11T11:00:00Z,27.8674,-96.5433,-2.0,0.0,11133222 
TABS,ioos:station:TABS:H:1,2007-09-11T11:30:00Z,27.8674,-96.5433,-2.0,0.0,11133222 
TABS,ioos:station:TABS:H:1,2007-09-12T05:30:00Z,27.8674,-96.5433,-2.0,0.0,11133222 
TABS,ioos:station:TABS:H:1,2007-09-12T10:00:00Z,27.8674,-96.5433,-2.0,0.0,11133222 
TABS,ioos:station:TABS:H:1,2007-09-12T10:30:00Z,27.8674,-96.5433,-2.0,32.0,11111222 
TABS,ioos:station:TABS:H:1,2007-09-12T11:00:00Z,27.8674,-96.5433,-2.0,32.0,11111222 
TABS,ioos:station:TABS:H:1,2007-09-12T11:30:00Z,27.8674,-96.5433,-2.0,32.0,11111222 
TABS,ioos:station:TABS:H:1,2007-09-12T15:00:00Z,27.8674,-96.5433,-2.0,32.0,11111222 
TABS,ioos:station:TABS:H:1,2007-09-12T15:30:00Z,27.8674,-96.5433,-2.0,32.0,11111222 
TABS,ioos:station:TABS:H:1,2007-09-12T16:00:00Z,27.8674,-96.5433,-2.0,32.0,11111222 
TABS,ioos:station:TABS:H:1,2007-09-12T16:30:00Z,27.8674,-96.5433,-2.0,32.0,11111222 
TABS,ioos:station:TABS:H:1,2007-09-13T02:30:00Z,27.8674,-96.5433,-2.0,3.0,11133222 
TABS,ioos:station:TABS:H:1,2007-09-13T04:00:00Z,27.8674,-96.5433,-2.0,0.0,11133222 
TABS,ioos:station:TABS:H:1,2007-09-14T19:00:00Z,27.8674,-96.5433,-2.0,0.0,11133222 
TABS,ioos:station:TABS:H:1,2007-09-14T20:30:00Z,27.8674,-96.5433,-2.0,0.5,11133222 
TABS,ioos:station:TABS:H:1,2007-09-14T21:00:00Z,27.8674,-96.5433,-2.0,0.0,11133222 
TABS,ioos:station:TABS:H:1,2007-09-14T21:30:00Z,27.8674,-96.5433,-2.0,0.0,11133222 
TABS,ioos:station:TABS:H:1,2007-09-14T22:00:00Z,27.8674,-96.5433,-2.0,0.0,11133222 
TABS,ioos:station:TABS:H:1,2007-09-14T22:30:00Z,27.8674,-96.5433,-2.0,0.0,11133222 
TABS,ioos:station:TABS:H:1,2007-09-14T23:00:00Z,27.8674,-96.5433,-2.0,0.0,11133222 
TABS,ioos:station:TABS:H:1,2007-09-14T23:30:00Z,27.8674,-96.5433,-2.0,0.0,11133222 
TABS,ioos:station:TABS:H:1,2007-09-15T02:00:00Z,27.8674,-96.5433,-2.0,0.0,11133222 
TABS,ioos:station:TABS:H:1,2007-09-15T02:30:00Z,27.8674,-96.5433,-2.0,0.0,11133222 
TABS,ioos:station:TABS:H:1,2007-09-15T03:00:00Z,27.8674,-96.5433,-2.0,0.0,11133222 
TABS,ioos:station:TABS:H:1,2007-09-15T03:30:00Z,27.8674,-96.5433,-2.0,0.0,11133222 
TABS,ioos:station:TABS:H:1,2007-09-15T04:00:00Z,27.8674,-96.5433,-2.0,41.2,11144222 
TABS,ioos:station:TABS:H:1,2007-09-15T04:30:00Z,27.8674,-96.5433,-2.0,41.2,11144222 
TABS,ioos:station:TABS:H:1,2007-09-15T05:00:00Z,27.8674,-96.5433,-2.0,41.2,11144222 
TABS,ioos:station:TABS:H:1,2007-09-15T05:30:00Z,27.8674,-96.5433,-2.0,41.2,11144222 
TABS,ioos:station:TABS:H:1,2007-09-15T06:00:00Z,27.8674,-96.5433,-2.0,41.2,11144222 
TABS,ioos:station:TABS:H:1,2007-09-15T06:30:00Z,27.8674,-96.5433,-2.0,41.2,11144222 
TABS,ioos:station:TABS:H:1,2007-09-15T07:00:00Z,27.8674,-96.5433,-2.0,41.2,11144222 
TABS,ioos:station:TABS:H:1,2007-09-15T07:30:00Z,27.8674,-96.5433,-2.0,41.2,11144222 
TABS,ioos:station:TABS:H:1,2007-09-15T08:00:00Z,27.8674,-96.5433,-2.0,41.2,11144222 
TABS,ioos:station:TABS:H:1,2007-09-15T08:30:00Z,27.8674,-96.5433,-2.0,41.2,11144222 
TABS,ioos:station:TABS:H:1,2007-09-15T09:00:00Z,27.8674,-96.5433,-2.0,41.2,11144222 
TABS,ioos:station:TABS:H:1,2007-09-15T10:00:00Z,27.8674,-96.5433,-2.0,0.0,11133222 
TABS,ioos:station:TABS:H:1,2007-09-15T10:30:00Z,27.8674,-96.5433,-2.0,41.2,11144222 
TABS,ioos:station:TABS:H:1,2007-09-15T11:00:00Z,27.8674,-96.5433,-2.0,41.2,11144222 
TABS,ioos:station:TABS:H:1,2007-09-15T11:30:00Z,27.8674,-96.5433,-2.0,41.2,11144222 
TABS,ioos:station:TABS:H:1,2007-09-15T13:30:00Z,27.8674,-96.5433,-2.0,41.2,11144222 
TABS,ioos:station:TABS:H:1,2007-09-15T14:00:00Z,27.8674,-96.5433,-2.0,41.2,11144222 
TABS,ioos:station:TABS:H:1,2007-09-15T14:30:00Z,27.8674,-96.5433,-2.0,41.2,11144222 
TABS,ioos:station:TABS:H:1,2007-09-15T15:00:00Z,27.8674,-96.5433,-2.0,41.2,11144222 
TABS,ioos:station:TABS:H:1,2007-09-15T16:00:00Z,27.8674,-96.5433,-2.0,41.2,11144222 
TABS,ioos:station:TABS:H:1,2007-09-15T17:00:00Z,27.8674,-96.5433,-2.0,41.2,11144222 
TABS,ioos:station:TABS:H:1,2007-09-15T17:30:00Z,27.8674,-96.5433,-2.0,41.2,11144222 
TABS,ioos:station:TABS:H:1,2007-09-15T18:00:00Z,27.8674,-96.5433,-2.0,41.2,11144222 
TABS,ioos:station:TABS:H:1,2007-09-15T18:30:00Z,27.8674,-96.5433,-2.0,41.2,11144222 
TABS,ioos:station:TABS:H:1,2007-09-15T20:00:00Z,27.8674,-96.5433,-2.0,41.2,11144222 
TABS,ioos:station:TABS:H:1,2007-09-15T20:30:00Z,27.8674,-96.5433,-2.0,41.2,11144222 
TABS,ioos:station:TABS:H:1,2007-09-16T03:00:00Z,27.8674,-96.5433,-2.0,0.0,11133222 
TABS,ioos:station:TABS:H:1,2007-09-16T03:30:00Z,27.8674,-96.5433,-2.0,0.0,11133222 
TABS,ioos:station:TABS:H:1,2007-09-16T04:00:00Z,27.8674,-96.5433,-2.0,0.0,11133222 
TABS,ioos:station:TABS:H:1,2007-09-16T04:30:00Z,27.8674,-96.5433,-2.0,0.0,11133222 
TABS,ioos:station:TABS:H:1,2007-09-16T10:00:00Z,27.8674,-96.5433,-2.0,0.0,11133222 
TABS,ioos:station:TABS:H:1,2007-09-16T10:30:00Z,27.8674,-96.5433,-2.0,0.0,11133222 
TABS,ioos:station:TABS:H:1,2007-09-16T11:00:00Z,27.8674,-96.5433,-2.0,0.0,11133222 
TABS,ioos:station:TABS:H:1,2007-09-16T11:30:00Z,27.8674,-96.5433,-2.0,0.0,11133222 
TABS,ioos:station:TABS:H:1,2007-09-16T16:00:00Z,27.8674,-96.5433,-2.0,0.0,11133222 
TABS,ioos:station:TABS:H:1,2007-09-16T16:30:00Z,27.8674,-96.5433,-2.0,0.0,11133222 
TABS,ioos:station:TABS:H:1,2007-09-16T17:00:00Z,27.8674,-96.5433,-2.0,0.0,11133222 
TABS,ioos:station:TABS:H:1,2007-09-16T17:30:00Z,27.8674,-96.5433,-2.0,0.0,11133222 
TABS,ioos:station:TABS:H:1,2007-09-17T00:30:00Z,27.8674,-96.5433,-2.0,0.0,11133222 
TABS,ioos:station:TABS:H:1,2007-09-17T07:00:00Z,27.8674,-96.5433,-2.0,8.5,11133222 
TABS,ioos:station:TABS:H:1,2007-09-17T07:30:00Z,27.8674,-96.5433,-2.0,0.0,11133222 
TABS,ioos:station:TABS:H:1,2007-09-17T08:00:00Z,27.8674,-96.5433,-2.0,0.0,11133222 
TABS,ioos:station:TABS:H:1,2007-09-17T08:30:00Z,27.8674,-96.5433,-2.0,0.0,11133222 
TABS,ioos:station:TABS:H:1,2007-09-17T11:00:00Z,27.8674,-96.5433,-2.0,0.0,11133222 
TABS,ioos:station:TABS:H:1,2007-09-17T11:30:00Z,27.8674,-96.5433,-2.0,0.0,11133222 
TABS,ioos:station:TABS:H:1,2007-09-17T12:00:00Z,27.8674,-96.5433,-2.0,0.0,11133222 
TABS,ioos:station:TABS:H:1,2007-09-17T12:30:00Z,27.8674,-96.5433,-2.0,0.0,11133222 
TABS,ioos:station:TABS:H:1,2007-09-18T02:00:00Z,27.8674,-96.5433,-2.0,0.0,11133222 
TABS,ioos:station:TABS:H:1,2007-09-18T02:30:00Z,27.8674,-96.5433,-2.0,8.0,11133222 
TABS,ioos:station:TABS:H:1,2007-09-18T03:00:00Z,27.8674,-96.5433,-2.0,8.0,11133222 
TABS,ioos:station:TABS:H:1,2007-09-18T03:30:00Z,27.8674,-96.5433,-2.0,8.0,11133222 
TABS,ioos:station:TABS:H:1,2007-09-18T07:00:00Z,27.8674,-96.5433,-2.0,8.0,11133222 
TABS,ioos:station:TABS:H:1,2007-09-18T07:30:00Z,27.8674,-96.5433,-2.0,8.0,11133222 
TABS,ioos:station:TABS:H:1,2007-09-18T08:00:00Z,27.8674,-96.5433,-2.0,8.0,11133222 
TABS,ioos:station:TABS:H:1,2007-09-18T08:30:00Z,27.8674,-96.5433,-2.0,8.0,11133222 
TABS,ioos:station:TABS:H:1,2007-09-18T09:00:00Z,27.8674,-96.5433,-2.0,8.0,11133222 
TABS,ioos:station:TABS:H:1,2007-09-18T09:30:00Z,27.8674,-96.5433,-2.0,8.0,11133222 
TABS,ioos:station:TABS:H:1,2007-09-18T10:30:00Z,27.8674,-96.5433,-2.0,8.0,11133222 
TABS,ioos:station:TABS:H:1,2007-09-18T11:00:00Z,27.8674,-96.5433,-2.0,8.0,11133222 
TABS,ioos:station:TABS:H:1,2007-09-18T11:30:00Z,27.8674,-96.5433,-2.0,8.0,11133222 
TABS,ioos:station:TABS:H:1,2007-09-18T12:00:00Z,27.8674,-96.5433,-2.0,8.0,11133222 
TABS,ioos:station:TABS:H:1,2007-09-18T12:30:00Z,27.8674,-96.5433,-2.0,8.0,11133222 
TABS,ioos:station:TABS:H:1,2007-09-18T14:00:00Z,27.8674,-96.5433,-2.0,8.0,11133222 
TABS,ioos:station:TABS:H:1,2007-09-18T14:30:00Z,27.8674,-96.5433,-2.0,8.0,11133222 
TABS,ioos:station:TABS:H:1,2007-09-18T15:00:00Z,27.8674,-96.5433,-2.0,8.0,11133222 
TABS,ioos:station:TABS:H:1,2007-09-18T15:30:00Z,27.8674,-96.5433,-2.0,8.0,11133222 
TABS,ioos:station:TABS:H:1,2007-09-18T21:30:00Z,27.8674,-96.5433,-2.0,8.0,11133222 
TABS,ioos:station:TABS:H:1,2007-09-18T22:00:00Z,27.8674,-96.5433,-2.0,8.0,11133222 
TABS,ioos:station:TABS:H:1,2007-09-18T22:30:00Z,27.8674,-96.5433,-2.0,8.0,11133222 
TABS,ioos:station:TABS:H:1,2007-09-18T23:00:00Z,27.8674,-96.5433,-2.0,8.0,11133222 
TABS,ioos:station:TABS:H:1,2007-09-18T23:30:00Z,27.8674,-96.5433,-2.0,8.0,11133222 
TABS,ioos:station:TABS:H:1,2007-09-19T02:00:00Z,27.8674,-96.5433,-2.0,0.0,11133222 
TABS,ioos:station:TABS:H:1,2007-09-19T02:30:00Z,27.8674,-96.5433,-2.0,8.0,11133222 
TABS,ioos:station:TABS:H:1,2007-09-19T03:00:00Z,27.8674,-96.5433,-2.0,8.0,11133222 
TABS,ioos:station:TABS:H:1,2007-09-19T03:30:00Z,27.8674,-96.5433,-2.0,8.0,11133222 
TABS,ioos:station:TABS:H:1,2007-09-19T10:00:00Z,27.8674,-96.5433,-2.0,0.0,11133222 
TABS,ioos:station:TABS:H:1,2007-09-19T10:30:00Z,27.8674,-96.5433,-2.0,0.0,11133222 
TABS,ioos:station:TABS:H:1,2007-09-19T11:00:00Z,27.8674,-96.5433,-2.0,0.0,11133222 
TABS,ioos:station:TABS:H:1,2007-09-19T11:30:00Z,27.8674,-96.5433,-2.0,0.0,11133222 
TABS,ioos:station:TABS:H:1,2007-09-19T16:30:00Z,27.8674,-96.5433,-2.0,0.0,11133222 
TABS,ioos:station:TABS:H:1,2007-09-19T21:00:00Z,27.8674,-96.5433,-2.0,0.0,11133222 
TABS,ioos:station:TABS:H:1,2007-09-19T21:30:00Z,27.8674,-96.5433,-2.0,0.0,11133222 
TABS,ioos:station:TABS:H:1,2007-09-19T22:00:00Z,27.8674,-96.5433,-2.0,0.0,11133222 
TABS,ioos:station:TABS:H:1,2007-09-19T22:30:00Z,27.8674,-96.5433,-2.0,0.0,11133222 
TABS,ioos:station:TABS:H:1,2007-09-20T03:00:00Z,27.8674,-96.5433,-2.0,9.2,11133222 
TABS,ioos:station:TABS:H:1,2007-09-20T04:00:00Z,27.8674,-96.5433,-2.0,44.0,11144222 
TABS,ioos:station:TABS:H:1,2007-09-20T07:00:00Z,27.8674,-96.5433,-2.0,44.0,11144222 
TABS,ioos:station:TABS:H:1,2007-09-20T07:30:00Z,27.8674,-96.5433,-2.0,44.0,11144222 
TABS,ioos:station:TABS:H:1,2007-09-20T08:30:00Z,27.8674,-96.5433,-2.0,44.0,11144222 
TABS,ioos:station:TABS:H:1,2007-09-20T10:00:00Z,27.8674,-96.5433,-2.0,44.0,11144222 
TABS,ioos:station:TABS:H:1,2007-09-20T10:30:00Z,27.8674,-96.5433,-2.0,44.0,11144222 
TABS,ioos:station:TABS:H:1,2007-09-20T11:00:00Z,27.8674,-96.5433,-2.0,44.0,11144222 
TABS,ioos:station:TABS:H:1,2007-09-20T11:30:00Z,27.8674,-96.5433,-2.0,44.0,11144222 
TABS,ioos:station:TABS:H:1,2007-09-20T14:00:00Z,27.8674,-96.5433,-2.0,44.0,11144222 
TABS,ioos:station:TABS:H:1,2007-09-20T14:30:00Z,27.8674,-96.5433,-2.0,44.0,11144222 
TABS,ioos:station:TABS:H:1,2007-09-20T15:00:00Z,27.8674,-96.5433,-2.0,44.0,11144222 
TABS,ioos:station:TABS:H:1,2007-09-20T15:30:00Z,27.8674,-96.5433,-2.0,44.0,11144222 
TABS,ioos:station:TABS:H:1,2007-09-20T16:00:00Z,27.8674,-96.5433,-2.0,44.0,11144222 
TABS,ioos:station:TABS:H:1,2007-09-20T16:30:00Z,27.8674,-96.5433,-2.0,44.0,11144222 
TABS,ioos:station:TABS:H:1,2007-09-20T17:00:00Z,27.8674,-96.5433,-2.0,44.0,11144222 
TABS,ioos:station:TABS:H:1,2007-09-20T17:30:00Z,27.8674,-96.5433,-2.0,44.0,11144222 
TABS,ioos:station:TABS:H:1,2007-09-20T18:00:00Z,27.8674,-96.5433,-2.0,44.0,11144222 
TABS,ioos:station:TABS:H:1,2007-09-20T19:00:00Z,27.8674,-96.5433,-2.0,44.0,11144222 
TABS,ioos:station:TABS:H:1,2007-09-20T19:30:00Z,27.8674,-96.5433,-2.0,44.0,11144222 
TABS,ioos:station:TABS:H:1,2007-09-20T21:00:00Z,27.8674,-96.5433,-2.0,44.0,11144222 
TABS,ioos:station:TABS:H:1,2007-09-20T21:30:00Z,27.8674,-96.5433,-2.0,44.0,11144222 
TABS,ioos:station:TABS:H:1,2007-09-20T22:00:00Z,27.8674,-96.5433,-2.0,44.0,11144222 
TABS,ioos:station:TABS:H:1,2007-09-20T22:30:00Z,27.8674,-96.5433,-2.0,44.0,11144222 
TABS,ioos:station:TABS:H:1,2007-09-20T23:00:00Z,27.8674,-96.5433,-2.0,44.0,11144222 
TABS,ioos:station:TABS:H:1,2007-09-20T23:30:00Z,27.8674,-96.5433,-2.0,44.0,11144222 
TABS,ioos:station:TABS:H:1,2007-09-21T00:00:00Z,27.8674,-96.5433,-2.0,44.0,11144222 
TABS,ioos:station:TABS:H:1,2007-09-21T00:30:00Z,27.8674,-96.5433,-2.0,44.0,11144222 
TABS,ioos:station:TABS:H:1,2007-09-21T02:30:00Z,27.8674,-96.5433,-2.0,0.0,11133222 
TABS,ioos:station:TABS:H:1,2007-09-21T03:00:00Z,27.8674,-96.5433,-2.0,0.0,11133222 
TABS,ioos:station:TABS:H:1,2007-09-21T03:30:00Z,27.8674,-96.5433,-2.0,0.0,11133222 
TABS,ioos:station:TABS:H:1,2007-09-21T04:00:00Z,27.8674,-96.5433,-2.0,0.0,11133222 
TABS,ioos:station:TABS:H:1,2007-09-21T04:30:00Z,27.8674,-96.5433,-2.0,0.0,11133222 
TABS,ioos:station:TABS:H:1,2007-09-21T06:00:00Z,27.8674,-96.5433,-2.0,0.0,11133222 
TABS,ioos:station:TABS:H:1,2007-09-21T06:30:00Z,27.8674,-96.5433,-2.0,0.0,11133222 
TABS,ioos:station:TABS:H:1,2007-09-21T07:00:00Z,27.8674,-96.5433,-2.0,0.0,11133222 
TABS,ioos:station:TABS:H:1,2007-09-21T07:30:00Z,27.8674,-96.5433,-2.0,0.0,11133222 
TABS,ioos:station:TABS:H:1,2007-09-21T08:00:00Z,27.8674,-96.5433,-2.0,0.0,11133222 
TABS,ioos:station:TABS:H:1,2007-09-21T08:30:00Z,27.8674,-96.5433,-2.0,0.0,11133222 
TABS,ioos:station:TABS:H:1,2007-09-21T10:00:00Z,27.8674,-96.5433,-2.0,0.0,11133222 
TABS,ioos:station:TABS:H:1,2007-09-21T10:30:00Z,27.8674,-96.5433,-2.0,0.0,11133222 
TABS,ioos:station:TABS:H:1,2007-09-21T11:00:00Z,27.8674,-96.5433,-2.0,0.0,11133222 
TABS,ioos:station:TABS:H:1,2007-09-21T11:30:00Z,27.8674,-96.5433,-2.0,0.0,11133222 
TABS,ioos:station:TABS:H:1,2007-09-21T14:00:00Z,27.8674,-96.5433,-2.0,0.0,11133222 
TABS,ioos:station:TABS:H:1,2007-09-21T14:30:00Z,27.8674,-96.5433,-2.0,0.0,11133222 
TABS,ioos:station:TABS:H:1,2007-09-21T15:00:00Z,27.8674,-96.5433,-2.0,0.0,11133222 
TABS,ioos:station:TABS:H:1,2007-09-21T15:30:00Z,27.8674,-96.5433,-2.0,0.0,11133222 
TABS,ioos:station:TABS:H:1,2007-09-21T16:00:00Z,27.8674,-96.5433,-2.0,0.0,11133222 
TABS,ioos:station:TABS:H:1,2007-09-21T16:30:00Z,27.8674,-96.5433,-2.0,0.0,11133222 
TABS,ioos:station:TABS:H:1,2007-09-21T18:00:00Z,27.8674,-96.5433,-2.0,0.0,11133222 
TABS,ioos:station:TABS:H:1,2007-09-21T18:30:00Z,27.8674,-96.5433,-2.0,0.0,11133222 
TABS,ioos:station:TABS:H:1,2007-09-21T19:00:00Z,27.8674,-96.5433,-2.0,0.0,11133222 
TABS,ioos:station:TABS:H:1,2007-09-21T19:30:00Z,27.8674,-96.5433,-2.0,0.0,11133222 
TABS,ioos:station:TABS:H:1,2007-09-21T22:00:00Z,27.8674,-96.5433,-2.0,0.0,11133222 
TABS,ioos:station:TABS:H:1,2007-09-21T22:30:00Z,27.8674,-96.5433,-2.0,0.0,11133222 
TABS,ioos:station:TABS:H:1,2007-09-21T23:00:00Z,27.8674,-96.5433,-2.0,0.0,11133222 
TABS,ioos:station:TABS:H:1,2007-09-21T23:30:00Z,27.8674,-96.5433,-2.0,0.0,11133222 
TABS,ioos:station:TABS:H:1,2007-09-22T02:30:00Z,27.8674,-96.5433,-2.0,0.0,11133222 
TABS,ioos:station:TABS:H:1,2007-09-22T03:00:00Z,27.8674,-96.5433,-2.0,0.0,11133222 
TABS,ioos:station:TABS:H:1,2007-09-22T03:30:00Z,27.8674,-96.5433,-2.0,0.0,11133222 
TABS,ioos:station:TABS:H:1,2007-09-22T04:00:00Z,27.8674,-96.5433,-2.0,0.0,11133222 
TABS,ioos:station:TABS:H:1,2007-09-22T06:00:00Z,27.8674,-96.5433,-2.0,0.0,11133222 
TABS,ioos:station:TABS:H:1,2007-09-22T06:30:00Z,27.8674,-96.5433,-2.0,0.0,11133222 
TABS,ioos:station:TABS:H:1,2007-09-22T07:00:00Z,27.8674,-96.5433,-2.0,0.0,11133222 
TABS,ioos:station:TABS:H:1,2007-09-22T07:30:00Z,27.8674,-96.5433,-2.0,0.0,11133222 
TABS,ioos:station:TABS:H:1,2007-09-22T09:30:00Z,27.8674,-96.5433,-2.0,2.0,11133222 
TABS,ioos:station:TABS:H:1,2007-09-22T10:00:00Z,27.8674,-96.5433,-2.0,0.0,11133222 
TABS,ioos:station:TABS:H:1,2007-09-22T10:30:00Z,27.8674,-96.5433,-2.0,0.0,11133222 
TABS,ioos:station:TABS:H:1,2007-09-22T11:00:00Z,27.8674,-96.5433,-2.0,0.0,11133222 
TABS,ioos:station:TABS:H:1,2007-09-22T11:30:00Z,27.8674,-96.5433,-2.0,0.0,11133222 
TABS,ioos:station:TABS:H:1,2007-09-22T12:00:00Z,27.8674,-96.5433,-2.0,0.0,11133222 
TABS,ioos:station:TABS:H:1,2007-09-22T12:30:00Z,27.8674,-96.5433,-2.0,0.0,11133222 
TABS,ioos:station:TABS:H:1,2007-09-22T15:30:00Z,27.8674,-96.5433,-2.0,0.0,11133222 
TABS,ioos:station:TABS:H:1,2007-09-22T16:00:00Z,27.8674,-96.5433,-2.0,0.0,11133222 
TABS,ioos:station:TABS:H:1,2007-09-22T16:30:00Z,27.8674,-96.5433,-2.0,0.0,11133222 
TABS,ioos:station:TABS:H:1,2007-09-22T19:30:00Z,27.8674,-96.5433,-2.0,0.0,11133222 
TABS,ioos:station:TABS:H:1,2007-09-22T20:00:00Z,27.8674,-96.5433,-2.0,0.0,11133222 
TABS,ioos:station:TABS:H:1,2007-09-22T20:30:00Z,27.8674,-96.5433,-2.0,0.0,11133222 
TABS,ioos:station:TABS:H:1,2007-09-22T21:00:00Z,27.8674,-96.5433,-2.0,0.0,11133222 
TABS,ioos:station:TABS:H:1,2007-09-22T21:30:00Z,27.8674,-96.5433,-2.0,0.0,11133222 
TABS,ioos:station:TABS:H:1,2007-09-22T22:00:00Z,27.8674,-96.5433,-2.0,0.0,11133222 
TABS,ioos:station:TABS:H:1,2007-09-22T22:30:00Z,27.8674,-96.5433,-2.0,0.0,11133222 
TABS,ioos:station:TABS:H:1,2007-09-22T23:00:00Z,27.8674,-96.5433,-2.0,0.0,11133222 
TABS,ioos:station:TABS:H:1,2007-09-22T23:30:00Z,27.8674,-96.5433,-2.0,0.0,11133222 
TABS,ioos:station:TABS:H:1,2007-09-23T02:00:00Z,27.8674,-96.5433,-2.0,0.0,11133222 
TABS,ioos:station:TABS:H:1,2007-09-23T02:30:00Z,27.8674,-96.5433,-2.0,0.0,11133222 
TABS,ioos:station:TABS:H:1,2007-09-23T03:00:00Z,27.8674,-96.5433,-2.0,0.0,11133222 
TABS,ioos:station:TABS:H:1,2007-09-23T03:30:00Z,27.8674,-96.5433,-2.0,0.0,11133222 
TABS,ioos:station:TABS:H:1,2007-09-23T06:00:00Z,27.8674,-96.5433,-2.0,0.0,11133222 
TABS,ioos:station:TABS:H:1,2007-09-23T06:30:00Z,27.8674,-96.5433,-2.0,0.0,11133222 
TABS,ioos:station:TABS:H:1,2007-09-23T07:00:00Z,27.8674,-96.5433,-2.0,0.0,11133222 
TABS,ioos:station:TABS:H:1,2007-09-23T07:30:00Z,27.8674,-96.5433,-2.0,0.0,11133222 
TABS,ioos:station:TABS:H:1,2007-09-23T09:30:00Z,27.8674,-96.5433,-2.0,0.0,11133222 
TABS,ioos:station:TABS:H:1,2007-09-23T10:00:00Z,27.8674,-96.5433,-2.0,0.0,11133222 
TABS,ioos:station:TABS:H:1,2007-09-23T10:30:00Z,27.8674,-96.5433,-2.0,0.0,11133222 
TABS,ioos:station:TABS:H:1,2007-09-23T11:00:00Z,27.8674,-96.5433,-2.0,0.0,11133222 
TABS,ioos:station:TABS:H:1,2007-09-23T11:30:00Z,27.8674,-96.5433,-2.0,0.0,11133222 
TABS,ioos:station:TABS:H:1,2007-09-23T14:00:00Z,27.8674,-96.5433,-2.0,0.0,11133222 
TABS,ioos:station:TABS:H:1,2007-09-23T14:30:00Z,27.8674,-96.5433,-2.0,0.0,11133222 
TABS,ioos:station:TABS:H:1,2007-09-23T15:00:00Z,27.8674,-96.5433,-2.0,0.0,11133222 
TABS,ioos:station:TABS:H:1,2007-09-23T15:30:00Z,27.8674,-96.5433,-2.0,0.0,11133222 
TABS,ioos:station:TABS:H:1,2007-09-23T16:00:00Z,27.8674,-96.5433,-2.0,0.0,11133222 
TABS,ioos:station:TABS:H:1,2007-09-23T16:30:00Z,27.8674,-96.5433,-2.0,0.0,11133222 
TABS,ioos:station:TABS:H:1,2007-09-23T17:00:00Z,27.8674,-96.5433,-2.0,0.0,11133222 
TABS,ioos:station:TABS:H:1,2007-09-23T17:30:00Z,27.8674,-96.5433,-2.0,0.0,11133222 
TABS,ioos:station:TABS:H:1,2007-09-23T18:00:00Z,27.8674,-96.5433,-2.0,0.0,11133222 
TABS,ioos:station:TABS:H:1,2007-09-23T18:30:00Z,27.8674,-96.5433,-2.0,0.0,11133222 
TABS,ioos:station:TABS:H:1,2007-09-23T20:00:00Z,27.8674,-96.5433,-2.0,0.0,11133222 
TABS,ioos:station:TABS:H:1,2007-09-23T20:30:00Z,27.8674,-96.5433,-2.0,2.0,11133222 
TABS,ioos:station:TABS:H:1,2007-09-23T21:00:00Z,27.8674,-96.5433,-2.0,0.0,11133222 
TABS,ioos:station:TABS:H:1,2007-09-23T21:30:00Z,27.8674,-96.5433,-2.0,0.0,11133222 
TABS,ioos:station:TABS:H:1,2007-09-24T02:00:00Z,27.8674,-96.5433,-2.0,0.0,11133222 
TABS,ioos:station:TABS:H:1,2007-09-24T02:30:00Z,27.8674,-96.5433,-2.0,0.0,11133222 
TABS,ioos:station:TABS:H:1,2007-09-24T03:00:00Z,27.8674,-96.5433,-2.0,0.0,11133222 
TABS,ioos:station:TABS:H:1,2007-09-24T03:30:00Z,27.8674,-96.5433,-2.0,0.0,11133222 
TABS,ioos:station:TABS:H:1,2007-09-24T04:00:00Z,27.8674,-96.5433,-2.0,0.0,11133222 
TABS,ioos:station:TABS:H:1,2007-09-24T04:30:00Z,27.8674,-96.5433,-2.0,0.0,11133222 
TABS,ioos:station:TABS:H:1,2007-09-24T05:00:00Z,27.8674,-96.5433,-2.0,0.0,11133222 
TABS,ioos:station:TABS:H:1,2007-09-24T05:30:00Z,27.8674,-96.5433,-2.0,0.0,11133222 
TABS,ioos:station:TABS:H:1,2007-09-24T09:30:00Z,27.8674,-96.5433,-2.0,0.0,11133222 
TABS,ioos:station:TABS:H:1,2007-09-24T10:00:00Z,27.8674,-96.5433,-2.0,0.5,11133222 
TABS,ioos:station:TABS:H:1,2007-09-24T10:30:00Z,27.8674,-96.5433,-2.0,0.0,11133222 
TABS,ioos:station:TABS:H:1,2007-09-24T16:00:00Z,27.8674,-96.5433,-2.0,0.0,11133222 
TABS,ioos:station:TABS:H:1,2007-09-24T16:30:00Z,27.8674,-96.5433,-2.0,0.0,11133222 
TABS,ioos:station:TABS:H:1,2007-09-24T17:30:00Z,27.8674,-96.5433,-2.0,0.0,11133222 
TABS,ioos:station:TABS:H:1,2007-09-24T22:30:00Z,27.8674,-96.5433,-2.0,0.0,11133222 
TABS,ioos:station:TABS:H:1,2007-09-24T23:00:00Z,27.8674,-96.5433,-2.0,0.0,11133222 
TABS,ioos:station:TABS:H:1,2007-09-24T23:30:00Z,27.8674,-96.5433,-2.0,0.0,11133222 
TABS,ioos:station:TABS:H:1,2007-09-25T00:00:00Z,27.8674,-96.5433,-2.0,0.0,11133222 
TABS,ioos:station:TABS:H:1,2007-09-25T01:00:00Z,27.8674,-96.5433,-2.0,0.0,11133222 
TABS,ioos:station:TABS:H:1,2007-09-25T01:30:00Z,27.8674,-96.5433,-2.0,0.0,11133222 
TABS,ioos:station:TABS:H:1,2007-09-25T02:00:00Z,27.8674,-96.5433,-2.0,0.0,11133222 
TABS,ioos:station:TABS:H:1,2007-09-25T02:30:00Z,27.8674,-96.5433,-2.0,0.0,11133222 
TABS,ioos:station:TABS:H:1,2007-09-25T03:00:00Z,27.8674,-96.5433,-2.0,0.0,11133222 
TABS,ioos:station:TABS:H:1,2007-09-25T03:30:00Z,27.8674,-96.5433,-2.0,0.0,11133222 
TABS,ioos:station:TABS:H:1,2007-09-25T04:00:00Z,27.8674,-96.5433,-2.0,0.0,11133222 
TABS,ioos:station:TABS:H:1,2007-09-25T04:30:00Z,27.8674,-96.5433,-2.0,0.0,11133222 
TABS,ioos:station:TABS:H:1,2007-09-25T07:00:00Z,27.8674,-96.5433,-2.0,0.0,11133222 
TABS,ioos:station:TABS:H:1,2007-09-25T07:30:00Z,27.8674,-96.5433,-2.0,0.0,11133222 
TABS,ioos:station:TABS:H:1,2007-09-25T09:00:00Z,27.8674,-96.5433,-2.0,2.0,11133222 
TABS,ioos:station:TABS:H:1,2007-09-25T09:30:00Z,27.8674,-96.5433,-2.0,0.0,11133222 
TABS,ioos:station:TABS:H:1,2007-09-25T10:00:00Z,27.8674,-96.5433,-2.0,0.0,11133222 
TABS,ioos:station:TABS:H:1,2007-09-25T10:30:00Z,27.8674,-96.5433,-2.0,0.0,11133222 
TABS,ioos:station:TABS:H:1,2007-09-25T14:00:00Z,27.8674,-96.5433,-2.0,0.5,11133222 
TABS,ioos:station:TABS:H:1,2007-09-25T14:30:00Z,27.8674,-96.5433,-2.0,0.0,11133222 
TABS,ioos:station:TABS:H:1,2007-09-25T15:00:00Z,27.8674,-96.5433,-2.0,0.0,11133222 
TABS,ioos:station:TABS:H:1,2007-09-25T15:30:00Z,27.8674,-96.5433,-2.0,0.0,11133222 
TABS,ioos:station:TABS:H:1,2007-09-25T16:00:00Z,27.8674,-96.5433,-2.0,0.0,11133222 
TABS,ioos:station:TABS:H:1,2007-09-25T16:30:00Z,27.8674,-96.5433,-2.0,0.0,11133222 
TABS,ioos:station:TABS:H:1,2007-09-25T20:00:00Z,27.8674,-96.5433,-2.0,0.0,11133222 
TABS,ioos:station:TABS:H:1,2007-09-25T20:30:00Z,27.8674,-96.5433,-2.0,0.0,11133222 
TABS,ioos:station:TABS:H:1,2007-09-25T21:00:00Z,27.8674,-96.5433,-2.0,0.0,11133222 
TABS,ioos:station:TABS:H:1,2007-09-25T21:30:00Z,27.8674,-96.5433,-2.0,0.0,11133222 
TABS,ioos:station:TABS:H:1,2007-09-26T03:00:00Z,27.8674,-96.5433,-2.0,0.0,11133222 
TABS,ioos:station:TABS:H:1,2007-09-26T03:30:00Z,27.8674,-96.5433,-2.0,0.0,11133222 
TABS,ioos:station:TABS:H:1,2007-09-26T04:00:00Z,27.8674,-96.5433,-2.0,0.0,11133222 
TABS,ioos:station:TABS:H:1,2007-09-26T04:30:00Z,27.8674,-96.5433,-2.0,0.0,11133222 
TABS,ioos:station:TABS:H:1,2007-09-26T13:30:00Z,27.8674,-96.5433,-2.0,0.0,11133222 
TABS,ioos:station:TABS:H:1,2007-09-26T14:00:00Z,27.8674,-96.5433,-2.0,0.0,11133222 
TABS,ioos:station:TABS:H:1,2007-09-26T14:30:00Z,27.8674,-96.5433,-2.0,0.0,11133222 
TABS,ioos:station:TABS:H:1,2007-09-26T15:00:00Z,27.8674,-96.5433,-2.0,0.0,11133222 
TABS,ioos:station:TABS:H:1,2007-09-26T15:30:00Z,27.8674,-96.5433,-2.0,0.0,11133222 
TABS,ioos:station:TABS:H:1,2007-09-26T16:00:00Z,27.8674,-96.5433,-2.0,0.0,11133222 
TABS,ioos:station:TABS:H:1,2007-09-26T16:30:00Z,27.8674,-96.5433,-2.0,0.0,11133222 